Regional Weather Roundup
Issued by NWS New Orleans/Baton Rouge, LA

Home | Current Version | Previous Version | Text Only | Print | Product List | Glossary On
Versions: 1 2 3 4 5 6 7 8 9 10 11 12 13 14 15 16 17 18 19 20 21 22 23 24 25 26 27 28 29 30 31 32 33 34 35 36 37 38 39 40 41 42 43 44 45 46 47 48 49 50
003
ASUS44 KLIX 271713
RWRLIX
NEW ORLEANS REGIONAL WEATHER ROUNDUP
NATIONAL WEATHER SERVICE NEW ORLEANS LA
1200 PM CDT TUE JUN 27 2017

NOTE: "FAIR" INDICATES FEW OR NO CLOUDS BELOW 12,000 FEET WITH NO
      SIGNIFICANT WEATHER AND/OR OBSTRUCTIONS TO VISIBILITY.
      SKY/WX - SKY CONDITION AND SIGNIFICANT WEATHER.
      TMP - AIR TEMPERATURE.     DP    - DEWPOINT TEMPERATURE.
      RH  - RELATIVE HUMIDITY.   PRES  - PRESSURE.
      HI  - HEAT INDEX.          WCI   - WIND CHILL INDEX.

*  THESE STATIONS ARE NOT NWS OR FAA STATIONS AND ARE NOT UNDER
   NWS QUALITY CONTROL.

LAZ038-040-048-061>063-065>067-069-271800-
SOUTHEAST LOUISIANA

CITY           SKY/WX    TMP DP  RH WIND       PRES   REMARKS
N.O. INTL ARPT CLOUDY    86  64  47 N8        30.02F
N.O. LAKEFRONT CLOUDY    84  65  52 NE7       30.03F
N.O. DOWNTOWN*   N/A     84  64  50 E7          N/A
RESERVE*         N/A     88  70  54 E6        30.03F
SLIDELL        CLOUDY    82  64  54 NE3       30.03S
BATON ROUGE    CLOUDY    84  67  56 NE6       30.04S
BOOTHVILLE     CLOUDY    82  73  74 NE3       30.03F
BELLE CHASSE   CLOUDY    82  68  62 VRB6      29.99F
BOGALUSA*        N/A     86  62  44 NE5       30.06S
GALLIANO*      CLOUDY    80  72  77 E3        30.03F
NEW ROADS*       N/A     83  69  61 CALM      30.04F
GONZALES*      PTSUNNY   85  70  61 NE6       30.02F
HAMMOND*       PTSUNNY   86  59  39 CALM      30.04F
HOUMA*         CLOUDY    82  73  74 NE6       30.03F
PORT FOURCHON* SUNNY    N/A N/A N/A NE8       30.03S

$$

MSZ070-080>082-271800-
SOUTHERN MISSISSIPPI

CITY           SKY/WX    TMP DP  RH WIND       PRES   REMARKS
MCCOMB         MOSUNNY   83  59  44 NE7       30.07S
GULFPORT       CLOUDY    82  68  62 N5        30.03S
BILOXI         NOT AVBL
PASCAGOULA     CLOUDY    85  68  56 NW6       30.03S
STENNIS ARPT*  SUNNY     81  66  61 VRB5      30.04F

$$

COASTAL OBSERVATIONS
LAKE AND NEARSHORE STATIONS

STATION/POSITION TIME  TEMP    WIND        PRES    WAVE
                       AIR SEA DIR/SP/G            HT/PER
                 (UTC) (F)     (DEG/KT/KT) (MB)    (FT/S)
PASCAGOULA       1648   82     200/  4/  5 1016.5
WAVELAND YACHT   1648   79 81   20/  4/  5 1017.0
GRAND ISLE       1648   80 85   50/  4/  6 1016.8
SOUTHWEST PASS   1648   84      50/  6/  9   N/A
NEW CANAL        1648   81 83   40/  7/  8 1016.8
SHELL BEACH      1648   81 85   40/  5/  7 1016.8

OFFSHORE STATIONS

STATION/POSITION TIME  TEMP    WIND        PRES    WAVE
                       AIR SEA DIR/SP/G            HT/PER
                 (UTC) (F)     (DEG/KT/KT) (MB)    (FT/S)
64 S DAUPHIN ISL 1650   82 84   60/  2/  4 1016.6    1/ 7

$$





USA.gov is the U.S. government's official web portal to all federal, state and local government web resources and services.